Location: Unspecified
(0.0000°N, 0.0000°E)
Time: 13:29:32
(UTC+00:00)

Vanguard 2 - Visible Passes

Search period start: 21 February 2019 00:00
Search period end: 03 March 2019 00:00
Orbit: 553 x 2939 km, 32.9° (Epoch: 20 February)

Date Brightness Start Highest point End Pass type
(mag) Time Alt. Az. Time Alt. Az. Time Alt. Az.
21 Feb 10.7 03:17:32 17° NNE 03:19:51 18° NE 03:27:18 10° ENE visible
21 Feb 10.1 05:19:36 10° NW 05:30:10 65° NE 05:46:34 10° ESE visible
21 Feb 8.5 18:47:03 10° WSW 18:53:36 45° NW 18:58:01 10° NE visible
22 Feb 10.3 03:34:48 22° NNE 03:37:55 26° NE 03:48:01 10° E visible
22 Feb 9.9 05:37:24 10° NW 05:48:15 84° NE 06:05:11 10° ESE visible
22 Feb 9.4 19:06:04 10° W 19:11:23 26° NW 19:15:16 10° NNE visible
23 Feb 10.0 03:52:06 28° N 03:55:50 37° NE 04:07:56 10° ESE visible
23 Feb 9.7 19:25:57 10° WNW 19:29:09 15° NW 19:31:51 10° N visible
24 Feb 9.7 04:09:25 33° NNW 04:13:43 51° NE 04:27:15 10° ESE visible
25 Feb 11.0 02:25:18 14° ENE 02:25:18 14° ENE 02:27:46 10° ENE visible
25 Feb 9.4 04:26:45 33° NW 04:31:38 70° NE 04:46:07 10° ESE visible
26 Feb 10.5 02:42:39 22° ENE 02:42:39 22° ENE 02:48:21 10° E visible
26 Feb 9.3 04:44:06 30° WNW 04:49:41 87° SW 05:04:36 10° SE visible
27 Feb 10.0 03:00:00 33° ENE 03:00:00 33° ENE 03:08:03 10° ESE visible
27 Feb 9.5 05:01:26 23° WNW 05:07:56 66° SSW 05:22:49 10° SE visible
28 Feb 9.4 03:17:20 50° ENE 03:17:20 50° ENE 03:27:10 10° ESE visible
28 Feb 9.8 05:18:47 16° W 05:26:24 50° SSW 05:40:48 10° SE visible
01 Mar 8.9 03:34:40 72° E 03:34:40 72° E 03:45:50 10° ESE visible
01 Mar 10.3 05:36:09 10° W 05:45:05 38° SSW 05:58:37 10° SE visible
02 Mar 8.7 03:51:58 74° SSW 03:51:58 74° SSW 04:04:09 10° SE visible
